To NAV CANADA Home Page Login to a new session Search on AWWS site Feedback and Comments Disclaimer Vers la page française équivalente Tips FAQ What's new on the site To the Forecasts and Observations / NOTAM section To "File a Flight Plan" website Publications and other links Update of the User's profile FIC Telephone Numbers My Weather Data Folder Route Weather Data Regional Weather Data Local Weather Data To the Forecasts and Observations / NOTAM section
Request Generated 10/17/2017 at 01:47:22 UTC . Weather information available at that time is displayed.

METAR/TAF

KANGIQSUJUAQ/KANGIQSUJUAQ (WAKEHAM BAY)/QC    

LWIS CYKG 170100Z AUTO 31008KT M02/M04 A2956=
LWIS CYKG 170000Z AUTO 30014G20KT M01/M04 A2956=
LWIS CYKG 162300Z AUTO 28011KT M02/M04 A2955=

*** REMARK        : Forecast period has ended; this was the last TAF issued
*** REMARQUE : La période de prévision est échue; ceci était le dernier TAF qui a été émis
TAF CYKG 161342Z 1614/1621 02015KT 1SM -SN BR BKN004 OVC012 TEMPO
1614/1621 4SM -SN SCT004 OVC015
BECMG 1614/1616 34015KT
RMK NXT FCST WILL BE ISSUED AT 171345Z=
Your time UTC time
Weather data provided by Environment Canada and NAV CANADA